Location: Unspecified
(0.0000°N, 0.0000°E)
Time: 18:24:09
(UTC+00:00)

Transit 2A - Pass Details

Date: 29 May 2019
Orbit: 596 x 962 km, 66.7° (Epoch: 18 August)

Event Time Altitude Azimuth Distance (km) Brightness Sun altitude
Rises 05:14:24 0° 220° (SW) 3,315 - -10.0°
Exits shadow 05:16:57 10° 230° (SW) 2,454 8.0 -9.4°
Reaches altitude 10° 05:16:59 10° 230° (SW) 2,441 8.0 -9.4°
Maximum altitude 05:21:57 31° 291° (WNW) 1,490 7.1 -8.2°
Drops below altitude 10° 05:27:16 10° 352° (N) 2,617 8.9 -7.0°
Sets 05:30:10 0° 2° (N) 3,591 9.8 -6.3°
